Lexington Weather

Lexington, Massachusetts, USA

66°F
9/23/2021 3:50am 
  • Lexington Conditions: Few Clouds
  • Temperature: 66.4°F / 19.1°CWarmer 0.2°F than last hour.
  • Dew Point: 65.1°FIncreased 0.2°Fsince last hour.
  • Relative Humidity: 96
  • Wind: Calm, 10-min avg: Calm, gust: 3 mph
  • Barometer: 30.04 in Steady
  • Visibility: 10 miles
  • Rain Today: 0.00 in
  •   

Regional Weather Roundup
for Boston / Norton, MA

        
000
ASUS41 KBOX 210004
RWRBOX

REGIONAL WEATHER ROUNDUP
NATIONAL WEATHER SERVICE BOSTON/NORTON MA
800 PM EDT MON SEP 20 2021

NOTE:  "FAIR" INDICATES FEW OR NO CLOUDS BELOW 12,000 FEET WITH NO 
SIGNIFICANT WEATHER AND/OR OBSTRUCTIONS TO VISIBILITY.

MAZALL-210100-
EASTERN MASSACHUSETTS
  
CITY           SKY/WX    TMP DP  RH WIND       PRES   REMARKS
BOSTON         PTCLDY    64  56  75 SE9       30.41R                  
6HR MIN TEMP:  64; 6HR MAX TEMP:  72;                                

BEVERLY        CLEAR     61  56  83 SE6       30.40R                  
LAWRENCE       CLEAR     62  53  72 SE3       30.42R                  
BEDFORD        CLEAR     62  51  67 SE6       30.39R                  
BLUE HILL      NOT AVBL                                               
NORWOOD        CLEAR     57  50  77 CALM      30.40R                  
MARSHFIELD     CLEAR     63  54  72 E7        30.40S                  
PLYMOUTH       CLEAR     57  54  89 E3        30.41R                  
TAUNTON        CLEAR     54  52  93 CALM      30.40R                  
NEW BEDFORD    CLEAR     60  53  77 E5        30.39R                  
$$

MAZALL-210100-
CAPE COD AND THE ISLANDS
  
CITY           SKY/WX    TMP DP  RH WIND       PRES   REMARKS
FALMOUTH       CLEAR     59  54  82 E6        30.40R                  
HYANNIS        CLEAR     57  53  86 NE3       30.40R                  
CHATHAM        CLEAR     63  48  58 E5        30.42R                  
PROVINCETOWN   CLEAR     58  54  86 E7        30.42R                  
NANTUCKET      CLEAR     59  47  64 E7        30.41R                  
MARTHAS VNYRD  CLEAR     58  53  84 E5        30.40R                  
$$
 
MAZALL-210100-
CENTRAL AND WESTERN MASSACHUSETTS
  
CITY           SKY/WX    TMP DP  RH WIND       PRES   REMARKS
WORCESTER      CLEAR     63  54  72 SE9       30.40R                  
6HR MIN TEMP:  63; 6HR MAX TEMP:  71;                                

FITCHBURG      CLEAR     64  50  60 SE3       30.40R                  
ORANGE         CLEAR     61  58  90 CALM      30.38R                  
SPRINGFIELD    PTCLDY    64  56  76 S3        30.36R                  
WESTFIELD      CLOUDY    65  60  84 S5        30.36R                  
NORTH ADAMS    NOT AVBL                                               
PITTSFIELD     CLEAR     61  55  81 S6        30.36R                  
$$
 
RIZALL-210100-
RHODE ISLAND
  
CITY           SKY/WX    TMP DP  RH WIND       PRES   REMARKS
PROVIDENCE     PTCLDY    64  55  72 SE6       30.40R                  
6HR MIN TEMP:  64; 6HR MAX TEMP:  75;                                

NEWPORT        CLEAR     61  55  81 E5        30.39R                  
SMITHFIELD     PTCLDY    60  56  86 CALM      30.40R                  
WESTERLY       CLEAR     59  56  89 CALM      30.38R                  
$$
 
CTZALL-210100-
CONNECTICUT
  
CITY           SKY/WX    TMP DP  RH WIND       PRES   REMARKS
BRADLEY INTL   PTCLDY    65  55  70 S8        30.37R                  
6HR MIN TEMP:  65; 6HR MAX TEMP:  77;                                

HARTFORD       CLEAR     66  54  65 S3        30.37R                  
BRIDGEPORT     CLEAR     68  55  63 SE8       30.36R                  
DANBURY        CLEAR     65  54  67 CALM      30.37R                  
GROTON         CLEAR     65  57  75 E5        30.37S                  
NEW HAVEN      CLEAR     69  56  62 SE5       30.37R                  
CHESTER        FAIR      59  57  94 CALM      30.38R                  
MERIDEN        CLEAR     61  55  81 CALM      30.37R                  
WILLIMANTIC    CLEAR     60  55  83 CALM      30.39R                  
OXFORD         CLEAR     62  55  77 SE5       30.38R                  
$$

MEZ002-015-021-024-NHZ003-005-008-011-012-014-VTZ005-008-210100-
NORTHERN NEW ENGLAND
  
CITY           SKY/WX    TMP DP  RH WIND       PRES   REMARKS
PORTLAND ME    CLEAR     59  54  83 CALM      30.42R                  
6HR MIN TEMP:  59; 6HR MAX TEMP:  67;                                

BANGOR ME      CLEAR     56  47  71 SE6       30.41R                  
CONCORD NH     CLEAR     61  54  77 SE5       30.39R                  
MANCHESTER NH  PTCLDY    64  51  62 SE5       30.38R                  
NASHUA NH      CLEAR     64  52  64 SE6       30.40R                  
PORTSMOUTH NH  CLEAR     60  52  75 SE6       30.41S                  
JAFFREY NH     CLEAR     62  57  83 SE6       30.40R                  
KEENE NH       CLEAR     60  59  96 CALM      30.37R                  
BURLINGTON VT  CLEAR     69  54  58 S6        30.29S                  
MT. WASHINGTON PTCLDY    50   7  17 SW10        N/A                   
$$

NYZ052-076-210100-
EASTERN NEW YORK
  
CITY           SKY/WX    TMP DP  RH WIND       PRES   REMARKS
ALBANY         PTCLDY    64  56  75 SE5       30.31S                  
6HR MIN TEMP:  64; 6HR MAX TEMP:  73;                                

NEW YORK CITY  PTCLDY    70  52  52 SE10      30.34R                  
6HR MIN TEMP:  70; 6HR MAX TEMP:  76;                                

$$
 
ANZALL-210100-
MARINE OBSERVATIONS
  
STATION/POSITION TIME  TEMP    WIND        PRES    VSBY  WAVE
                       AIR SEA DIR/SP/G                  HT/PER
                 (UTC) (F)     (DEG/KT/KT) (MB)    (MI)  (FT/S)
BOSTON BUOY      2340      67  120/ 10/ 12 1029.8R
BUZZARDS BAY     2300          110/ 11/ 12 1029.8R
NANTUCKET SOUND  2340   67 72   90/ 12/ 14 1029.2R
MASS BAY-STELLWA 2304   64     130/ 10/ 12 1029.3S  1 7/8  4/11
ISLE OF SHOALS   2300   63     130/ 15/ 16 1028.7R
S OF BLOCK IS    2326      71                N/A           3/11
$$

......................KEY.........................
  SKY/WX - SKY CONDITION/PRESENT WEATHER
  TMP    - TEMPERATURE IN FAHRENHEIT
  DWPT   - DEWPOINT IN FAHRENHEIT
  RH     - RELATIVE HUMIDITY IN PERCENT
  WIND   - DIRECTION AND SPEED IN MPH
  PRES   - MEAN SEA LEVEL PRESSURE IN INCHES OF HG
  WCI    - WIND CHILL INDEX
  VSB    - VISIBILITY IN MILES
  HX     - HEAT INDEX
  TC     - TEMPERATURE IN CELSIUS
  VRB    - VARIABLE WIND DIRECTION
  N/A    - NOT AVAILABLE
  
      

Other recent Regional Weather Roundups

Thu Sep 23, 3:04am

Thu Sep 23, 2:04am

Thu Sep 23, 1:04am

Thu Sep 23, 12:04am

Wed Sep 22, 11:04pm

Wed Sep 22, 10:04pm

Wed Sep 22, 9:04pm

Wed Sep 22, 8:04pm

Wed Sep 22, 7:04pm

Wed Sep 22, 6:04pm

Wed Sep 22, 5:04pm

Wed Sep 22, 4:04pm

Wed Sep 22, 3:04pm

Wed Sep 22, 2:04pm

Wed Sep 22, 1:04pm

Wed Sep 22, 12:05pm

Wed Sep 22, 11:04am

Wed Sep 22, 10:04am

Wed Sep 22, 9:04am

Wed Sep 22, 8:04am

Wed Sep 22, 7:04am

Wed Sep 22, 6:04am

Wed Sep 22, 5:04am

Wed Sep 22, 4:04am

Wed Sep 22, 3:04am

Wed Sep 22, 2:04am

Wed Sep 22, 1:04am

Wed Sep 22, 12:04am

Tue Sep 21, 11:04pm

Tue Sep 21, 10:04pm

Tue Sep 21, 9:04pm

Tue Sep 21, 8:04pm

Tue Sep 21, 7:04pm

Tue Sep 21, 6:04pm

Tue Sep 21, 5:04pm

Tue Sep 21, 4:04pm

Tue Sep 21, 3:04pm

Tue Sep 21, 2:04pm

Tue Sep 21, 1:04pm

Tue Sep 21, 12:04pm

Tue Sep 21, 11:04am

Tue Sep 21, 10:04am

Tue Sep 21, 9:04am

Tue Sep 21, 8:04am

Tue Sep 21, 7:04am

Tue Sep 21, 6:04am

Tue Sep 21, 5:04am

Tue Sep 21, 4:04am

Tue Sep 21, 3:04am

Tue Sep 21, 2:04am

Tue Sep 21, 1:04am

Tue Sep 21, 12:04am

Mon Sep 20, 11:04pm

Mon Sep 20, 10:04pm

Mon Sep 20, 9:04pm

Mon Sep 20, 7:04pm

Mon Sep 20, 6:04pm

Mon Sep 20, 5:04pm

Mon Sep 20, 4:04pm

Mon Sep 20, 3:04pm

Mon Sep 20, 2:04pm

Mon Sep 20, 1:04pm

Mon Sep 20, 12:04pm

Mon Sep 20, 11:04am

Mon Sep 20, 10:04am

Mon Sep 20, 9:04am

Mon Sep 20, 7:04am

Mon Sep 20, 6:04am

Mon Sep 20, 5:04am

Mon Sep 20, 4:04am

Mon Sep 20, 3:04am

Mon Sep 20, 2:04am

Mon Sep 20, 1:04am

Mon Sep 20, 12:04am

Sun Sep 19, 11:04pm

Sun Sep 19, 10:04pm

Sun Sep 19, 9:04pm

Sun Sep 19, 8:04pm

Sun Sep 19, 7:04pm

Sun Sep 19, 6:04pm

Sun Sep 19, 5:04pm

Sun Sep 19, 4:04pm

Sun Sep 19, 3:04pm

Sun Sep 19, 2:05pm

Sun Sep 19, 1:04pm

Sun Sep 19, 12:04pm

Sun Sep 19, 11:04am

Sun Sep 19, 10:05am

Sun Sep 19, 9:04am

Sun Sep 19, 8:04am

Sun Sep 19, 7:04am

Sun Sep 19, 6:04am

Sun Sep 19, 5:04am

Sun Sep 19, 4:04am

Sun Sep 19, 3:04am

Sun Sep 19, 2:04am

Sun Sep 19, 1:04am

Sun Sep 19, 12:04am

Sat Sep 18, 11:05pm

Sat Sep 18, 10:04pm

Sat Sep 18, 9:04pm

Sat Sep 18, 8:04pm

Sat Sep 18, 7:04pm

Sat Sep 18, 6:04pm

Sat Sep 18, 5:04pm

Sat Sep 18, 4:04pm

Sat Sep 18, 3:04pm

Sat Sep 18, 2:04pm

Sat Sep 18, 1:04pm

Sat Sep 18, 12:04pm

Sat Sep 18, 11:04am

Sat Sep 18, 10:04am

Sat Sep 18, 9:04am

Sat Sep 18, 8:04am

Sat Sep 18, 7:04am

Sat Sep 18, 6:04am

Sat Sep 18, 5:04am

Sat Sep 18, 4:04am

Sat Sep 18, 3:04am

Sat Sep 18, 2:04am

Sat Sep 18, 1:04am

Sat Sep 18, 12:04am

Fri Sep 17, 11:04pm

Fri Sep 17, 10:04pm

Fri Sep 17, 9:04pm

Fri Sep 17, 8:04pm

Fri Sep 17, 7:04pm

Fri Sep 17, 6:04pm

Fri Sep 17, 5:04pm

Fri Sep 17, 4:04pm

Fri Sep 17, 3:04pm

Fri Sep 17, 2:04pm

Fri Sep 17, 1:04pm

Fri Sep 17, 12:05pm

Fri Sep 17, 11:04am

Fri Sep 17, 10:04am

Fri Sep 17, 9:04am

Fri Sep 17, 8:04am

Fri Sep 17, 7:04am

Fri Sep 17, 6:04am

Fri Sep 17, 5:04am

Fri Sep 17, 4:04am

Fri Sep 17, 3:04am

Fri Sep 17, 2:04am

Fri Sep 17, 1:04am

Fri Sep 17, 12:04am

Thu Sep 16, 11:04pm

Thu Sep 16, 10:04pm

Thu Sep 16, 9:04pm

Thu Sep 16, 8:04pm

Thu Sep 16, 7:04pm

Thu Sep 16, 6:04pm

Thu Sep 16, 5:04pm

Thu Sep 16, 4:04pm

Thu Sep 16, 3:04pm

Thu Sep 16, 2:04pm

Thu Sep 16, 1:05pm

Thu Sep 16, 12:04pm

Thu Sep 16, 11:05am

Thu Sep 16, 10:05am

Thu Sep 16, 9:04am

Thu Sep 16, 8:04am

Thu Sep 16, 7:04am

Thu Sep 16, 6:04am

Thu Sep 16, 5:04am

Thu Sep 16, 4:04am

Meta data:

ID: 2182f381-e9a9-4b3e-b168-ee278ba32004
Link: https://api.weather.gov/products/2182f381-e9a9-4b3e-b168-ee278ba32004